Tracking 23764 objects as of 17-Oct-2021
HD Live streaming from Space Station
objects crossing your sky now

ONEWEB-0334

Track ONEWEB-0334 now!
10-day predictions
ONEWEB-0334 is classified as:


NORAD ID: 49200
Int'l Code: 2021-083Q
Perigee: 592.7 km
Apogee: 622.2 km
Inclination: 87.2 °
Period: 96.7 minutes
Semi major axis: 6978 km
RCS: Unknown
Launch date: September 14, 2021
Source: United Kingdom (UK)
Launch site: TYURATAM MISSILE AND SPACE COMPLEX (TTMTR)
aabbcc
Your satellite tracking list
Your tracking list is empty




NASA's NSSDC Master Catalog

Two Line Element Set (TLE):
1 49200U 21083Q   21289.83335648 -.00001152  00000-0 -12445-3 0  9991
2 49200  87.2003 316.8504 0021132 176.2411 221.6825 14.89244364  6169
Source of the keplerian elements: AFSPC